| time (UTC) | temp F | wind direction | speed knots | gust knots | rain 1hr in | rain 24hr in | rain mn in | humidity % | barometer mb |
| 20260505191553 | 69 | 261 | 0.9 | 7.0 | 0.00 | 0.00 | 0.00 | 48 | 1010.4 |
| 20260505190051 | 69 | 303 | 2.6 | 6.1 | 0.00 | 0.00 | 0.00 | 49 | 1010.4 |
| 20260505184546 | 68 | 291 | 4.3 | 7.8 | 0.00 | 0.00 | 0.00 | 56 | 1010.3 |
| 20260505183048 | 68 | 316 | 3.5 | 7.8 | 0.00 | 0.00 | 0.00 | 57 | 1010.3 |
| 20260505181541 | 67 | 257 | 2.6 | 7.0 | 0.00 | 0.00 | 0.00 | 55 | 1010.4 |
| 20260505180037 | 66 | 277 | 2.6 | 7.0 | 0.00 | 0.00 | 0.00 | 59 | 1010.3 |
| 20260505174534 | 65 | 308 | 4.3 | 7.0 | 0.00 | 0.00 | 0.00 | 61 | 1010.3 |
| 20260505173039 | 65 | 270 | 3.5 | 8.7 | 0.00 | 0.00 | 0.00 | 65 | 1010.2 |
| 20260505171533 | 64 | 272 | 3.5 | 7.8 | 0.00 | 0.00 | 0.00 | 64 | 1010.2 |
| 20260505170033 | 64 | 281 | 5.2 | 7.8 | 0.00 | 0.00 | 0.00 | 67 | 1010.1 |
| 20260505164527 | 63 | 286 | 4.3 | 8.7 | 0.00 | 0.00 | 0.00 | 66 | 1010.0 |
| 20260505163026 | 63 | 279 | 4.3 | 7.0 | 0.00 | 0.00 | 0.00 | 66 | 1009.9 |
| 20260505161527 | 63 | 254 | 4.3 | 7.0 | 0.00 | 0.00 | 0.00 | 64 | 1009.9 |
| 20260505153017 | 61 | 229 | 5.2 | 8.7 | 0.00 | 0.00 | 0.00 | 67 | 1009.7 |
| 20260505151511 | 60 | 261 | 4.3 | 6.1 | 0.00 | 0.00 | 0.00 | 68 | 1009.6 |
| 20260505140124 | 58 | 196 | 0.9 | 3.5 | 0.00 | 0.00 | 0.00 | 72 | 1009.0 |
| 20260505124558 | 52 | 137 | 1.7 | 6.1 | 0.00 | 0.00 | 0.00 | 80 | 1008.5 |
| 20260505123048 | 52 | 153 | 2.6 | 3.5 | 0.00 | 0.00 | 0.00 | 79 | 1008.2 |
| 20260505121547 | 53 | 134 | 1.7 | 3.5 | 0.00 | 0.00 | 0.00 | 78 | 1008.1 |
| 20260505120049 | 53 | 184 | 1.7 | 3.5 | 0.00 | 0.00 | 0.00 | 77 | 1008.1 |
| 20260505114544 | 55 | 174 | 1.7 | 4.3 | 0.00 | 0.00 | 0.00 | 75 | 1007.9 |
| 20260505113035 | 55 | 142 | 1.7 | 3.5 | 0.00 | 0.00 | 0.00 | 74 | 1007.8 |
| 20260505111534 | 56 | 198 | 0.9 | 7.0 | 0.00 | 0.00 | 0.00 | 72 | 1007.8 |
| 20260505101528 | 56 | 145 | 1.7 | 3.5 | 0.00 | 0.00 | 0.00 | 72 | 1007.6 |
| 20260505100028 | 56 | 188 | 1.7 | 3.5 | 0.00 | 0.00 | 0.00 | 72 | 1007.6 |
| 20260505094530 | 56 | 195 | 1.7 | 3.5 | 0.00 | 0.00 | 0.00 | 73 | 1007.5 |
| 20260505093024 | 56 | 156 | 1.7 | 3.5 | 0.00 | 0.00 | 0.00 | 73 | 1007.4 |
| 20260505091520 | 56 | 157 | 1.7 | 3.5 | 0.00 | 0.00 | 0.00 | 72 | 1007.2 |
| 20260505090021 | 57 | 132 | 0.9 | 3.5 | 0.00 | 0.00 | 0.00 | 71 | 1007.1 |
| 20260505084532 | 57 | 146 | 1.7 | 3.5 | 0.00 | 0.00 | 0.00 | 70 | 1007.2 |
| 20260505083019 | 57 | 149 | 1.7 | 4.3 | 0.00 | 0.00 | 0.00 | 70 | 1007.1 |
| 20260505081514 | 58 | 209 | 1.7 | 3.5 | 0.00 | 0.00 | 0.00 | 68 | 1007.1 |
| 20260505080015 | 58 | 209 | 2.6 | 6.1 | 0.00 | 0.00 | 0.00 | 67 | 1007.0 |
| 20260505074511 | 58 | 223 | 1.7 | 4.3 | 0.00 | 0.00 | 0.00 | 69 | 1007.0 |
| 20260505073010 | 57 | 180 | 1.7 | 4.3 | 0.00 | 0.00 | 0.00 | 70 | 1006.9 |
| 20260505071508 | 58 | 177 | 1.7 | 5.2 | 0.00 | 0.00 | 0.00 | 70 | 1006.8 |
| 20260505070005 | 59 | 132 | 0.9 | 4.3 | 0.00 | 0.00 | 0.00 | 68 | 1006.7 |
| 20260505064506 | 60 | 227 | 2.6 | 7.8 | 0.00 | 0.00 | 0.00 | 67 | 1006.6 |
| 20260505063006 | 59 | 239 | 2.6 | 6.1 | 0.00 | 0.00 | 0.00 | 68 | 1006.6 |
| 20260505061502 | 59 | 215 | 3.5 | 7.0 | 0.00 | 0.00 | 0.00 | 68 | 1006.7 |
| 20260505060002 | 59 | 225 | 2.6 | 5.2 | 0.00 | 0.00 | 0.00 | 67 | 1006.6 |
| 20260505054611 | 59 | 207 | 3.5 | 5.2 | 0.00 | 0.00 | 0.00 | 67 | 1006.6 |
| 20260505053001 | 60 | 227 | 3.5 | 6.1 | 0.00 | 0.00 | 0.00 | 66 | 1006.5 |
| 20260505051600 | 60 | 234 | 3.5 | 5.2 | 0.00 | 0.00 | 0.00 | 64 | 1006.5 |
| 20260505041600 | 59 | 164 | 2.6 | 3.5 | 0.00 | 0.00 | 0.00 | 61 | 1006.3 |
| 20260505040058 | 56 | 185 | 0.9 | 4.3 | 0.00 | 0.00 | 0.00 | 64 | 1006.1 |
| 20260505034557 | 53 | 83 | 2.6 | 3.5 | 0.00 | 0.00 | 0.00 | 71 | 1005.6 |
| 20260505033057 | 54 | 77 | 2.6 | 3.5 | 0.00 | 0.00 | 0.00 | 71 | 1005.5 |
| 20260505031605 | 55 | 83 | 3.5 | 3.5 | 0.00 | 0.00 | 0.00 | 72 | 1005.4 |
| 20260505030054 | 59 | 83 | 2.6 | 3.5 | 0.00 | 0.00 | 0.00 | 67 | 1005.2 |
| 20260505024602 | 64 | 77 | 1.7 | 2.6 | 0.00 | 0.00 | 0.00 | 59 | 1005.1 |
| 20260505023052 | 71 | 121 | 0.0 | 0.9 | 0.00 | 0.00 | 0.00 | 44 | 1005.1 |
| 20260505021554 | 74 | 47 | 0.0 | 0.9 | 0.00 | 0.00 | 0.00 | 38 | 1005.2 |
| 20260505020051 | 75 | 25 | 0.0 | 2.6 | 0.00 | 0.00 | 0.00 | 35 | 1005.2 |
| 20260505014604 | 75 | 297 | 0.9 | 3.5 | 0.00 | 0.00 | 0.00 | 36 | 1005.2 |
| 20260505013051 | 76 | 329 | 1.7 | 4.3 | 0.00 | 0.00 | 0.00 | 34 | 1005.4 |
| 20260505011556 | 76 | 324 | 2.6 | 8.7 | 0.00 | 0.00 | 0.00 | 31 | 1005.5 |
| 20260505010046 | 77 | 353 | 2.6 | 5.2 | 0.00 | 0.00 | 0.00 | 31 | 1005.6 |
| 20260505004545 | 76 | 355 | 2.6 | 7.0 | 0.00 | 0.00 | 0.00 | 29 | 1005.7 |
| 20260505003044 | 76 | 299 | 1.7 | 7.0 | 0.00 | 0.00 | 0.00 | 32 | 1005.7 |
| 20260505001543 | 76 | 315 | 3.5 | 8.7 | 0.00 | 0.00 | 0.00 | 29 | 1005.7 |
| 20260505000054 | 76 | 311 | 6.1 | 11.3 | 0.00 | 0.00 | 0.00 | 27 | 1005.9 |
| 20260504234547 | 76 | 303 | 1.7 | 6.1 | 0.00 | 0.00 | 0.00 | 30 | 1005.9 |
| 20260504233100 | 76 | 313 | 1.7 | 9.6 | 0.00 | 0.00 | 0.00 | 29 | 1005.9 |
| 20260504231540 | 76 | 315 | 1.7 | 7.0 | 0.00 | 0.00 | 0.00 | 28 | 1006.0 |
| 20260504230038 | 76 | 41 | 2.6 | 7.0 | 0.00 | 0.00 | 0.00 | 30 | 1006.1 |
| 20260504224539 | 76 | 305 | 3.5 | 6.1 | 0.00 | 0.00 | 0.00 | 31 | 1006.3 |
| 20260504223053 | 76 | 58 | 2.6 | 8.7 | 0.00 | 0.00 | 0.00 | 30 | 1006.4 |
| 20260504221536 | 77 | 346 | 3.5 | 8.7 | 0.00 | 0.00 | 0.00 | 30 | 1006.6 |
| 20260504220031 | 76 | 296 | 2.6 | 7.0 | 0.00 | 0.00 | 0.00 | 32 | 1006.7 |
| 20260504214531 | 75 | 346 | 1.7 | 9.6 | 0.00 | 0.00 | 0.00 | 33 | 1006.8 |
| 20260504213040 | 75 | 317 | 4.3 | 10.4 | 0.00 | 0.00 | 0.00 | 30 | 1006.9 |
| 20260504211533 | 75 | 308 | 4.3 | 8.7 | 0.00 | 0.00 | 0.00 | 30 | 1006.9 |
| 20260504210026 | 76 | 305 | 2.6 | 8.7 | 0.00 | 0.00 | 0.00 | 33 | 1007.1 |
| 20260504204535 | 76 | 38 | 3.5 | 6.1 | 0.00 | 0.00 | 0.00 | 29 | 1007.1 |
| 20260504203024 | 76 | 346 | 4.3 | 9.6 | 0.00 | 0.00 | 0.00 | 31 | 1007.3 |
| 20260504201519 | 75 | 296 | 2.6 | 7.8 | 0.00 | 0.00 | 0.00 | 36 | 1007.3 |
| 20260504200016 | 74 | 299 | 2.6 | 8.7 | 0.00 | 0.00 | 0.00 | 39 | 1007.4 |
| 20260504194515 | 74 | 303 | 4.3 | 9.6 | 0.00 | 0.00 | 0.00 | 42 | 1007.5 |
| 20260504193012 | 73 | 288 | 2.6 | 6.1 | 0.00 | 0.00 | 0.00 | 39 | 1007.6 |